Regional Weather Roundup
Issued by NWS Newport/Morehead, NC

Home | Current Version | Previous Version | Text Only | Print | Product List | Glossary On
Versions: 1 2 3 4 5 6 7 8 9 10 11 12 13 14 15 16 17 18 19 20 21 22 23 24 25 26 27 28 29 30 31 32 33 34 35 36 37 38 39 40 41 42 43 44 45 46 47 48 49 50
000
ASUS42 KMHX 271224
RWRMHX
WEATHER ROUNDUP FOR EASTERN NORTH CAROLINA
NATIONAL WEATHER SERVICE NEWPORT/MOREHEAD CITY NC
800 AM EDT MON APR 27 2015

NOTE: "FAIR" INDICATES FEW OR NO CLOUDS BELOW 12,000 FEET
WITH NO SIGNIFICANT WEATHER AND/OR OBSTRUCTIONS TO VISIBILITY

NCZ015>017-031-032-045>047-102-103-271300-
NORTH COAST

CITY           SKY/WX    TMP DP  RH WIND       PRES   REMARKS
EDENTON        SUNNY     51  48  90 CALM      29.77S
ELIZABETH CITY SUNNY     50  45  83 W5        29.77R
KITTY HAWK     SUNNY     53  44  71 NW6       29.75R
MANTEO         SUNNY     56  41  58 NW7       29.76S

$$

NCZ045>047-081-094-103-104-271300-
CENTRAL COAST

CITY           SKY/WX    TMP DP  RH WIND       PRES   REMARKS
FRISCO         SUNNY     53  40  61 VRB7      29.75R
SWANQUARTER      N/A     54 N/A N/A NW6       29.74S

$$

NCZ095-097-098-100-101-271300-
SOUTHERN COAST

CITY           SKY/WX    TMP DP  RH WIND       PRES   REMARKS
BEAUFORT       SUNNY     53  47  79 N10       29.77R
CEDAR ISLAND     N/A     57 N/A N/A NW14      29.79S
JACKSONVILLE   SUNNY     51  46  83 N8        29.78R
PINEY ISLAND   SUNNY    N/A N/A N/A N15       29.76R
WILMINGTON     SUNNY     52  48  86 N9        29.79R


$$

NCZ011>013-027>030-043-044-078>080-089-090>093-098-271300-
COASTAL PLAIN

CITY           SKY/WX    TMP DP  RH WIND       PRES   REMARKS
AHOSKIE        SUNNY     45  44  97 CALM      29.78S
CLINTON        SUNNY     49  49 100 CALM      29.80S
ELIZABETHTOWN  SUNNY     50  49  95 CALM      29.81R
GOLDSBORO      SUNNY     49  46  91 CALM      29.77R
GREENVILLE     SUNNY     48  48 100 CALM      29.81R
HAVELOCK       SUNNY     55  46  71 N10       29.78R
KENANSVILLE    SUNNY     50  47  88 N5        29.80S
KINSTON        SUNNY     48  46  93 NW5       29.79S
NEW BERN       SUNNY     52  46  80 N7        29.79R
RICHLANDS      SUNNY     52  45  76 NW5       29.79R
ROCKY MOUNT    SUNNY     49  45  86 W5        29.79S
WASHINGTON     SUNNY     49  46  89 NW3       29.78S
WHITEVILLE     SUNNY     51  48  91 N3        29.80R

$$

AMZ130-135-150-152-154-156-158-170-250-252-270-ANZ085-086-088-633-658-670-271300-
MARINE OBSERVATIONS

STATION/POSITION TIME  TEMP    WIND        PRES    WAVE   SWELL
                       AIR SEA DIR/SP/G            HT/PER HT/PER
                 (UTC) (F)     (DEG/KT/KT) (MB)    (FT/S) (FT/S)
CHESAPEAKE LIGHT 1200   54     260/ 11/ 12 1007.6
64 E VA BEACH    1150   53 55  300/ 10/ 12 1006.8    3/ 7   3/ 7
DUCK             1200   53 54  280/  7/ 10 1006.6
2 E DUCK         1111      54                N/A     3/ 7
10 NE DUCK       NOT AVBL
OREGON INLET     1200   54 54  320/  9/ 11 1007.6
HATTERAS CG      1200   56 62  330/ 17/ 19 1006.8
DIAMOND BUOY     1150   59 74  360/ 19/ 23 1006.3    6/ 8   5/ 8
CAPE LOOKOUT     1200   54     340/ 13/ 15 1007.5
BEAUFORT LAB     1200   53 61  350/ 10/ 14 1007.1
27 SE WRIGHTSVLE 1200   55 72   10/ 16/ 19   N/A
5 SE WRIGHTSVLE  NOT AVBL
225 S CAPE HAT   1150   67 70  360/  6/  8 1005.1    6/ 8   7/ 8
41 SE CHARLESTON 1150   62 71  360/ 12/ 16 1007.6    4/ 6   2/ 8

$$



USA.gov is the U.S. government's official web portal to all federal, state and local government web resources and services.